Date String (YYYY-MM-DD hh:mm:ss) UTC,Instrument flags,Ambient pressure (hPa),Sample flow (lpm),Bypass flow (lpm),Sample temperature (°C),Ambient temperature (°C),ASC tube jacket temperature (°C),LED temperature (°C),Box temperature (°C),Sample RH (%),Span deviation,Mass concentration (μg/m³),Mass concentration (μg/m³),Mass concentration (μg/m³)
DateTimeUTC,F1_M11,P_M11,Q1_M11,Q2_M11,T1_M11,T2_M11,T3_M11,T4_M11,T5_M11,U1_M11,ZSPAN_M11,X0_M11,X2_M11,X1_M11
2023-04-29 08:00:00,,0833.4,5.00,0.00,23.7,21.9,00.0,32.3,25.2,13.1,0000.0,0012.17,0004.34,0001.88
2023-04-29 08:01:00,,0833.4,5.00,0.00,23.7,21.9,00.0,32.2,25.2,13.0,0000.0,0012.30,0004.33,0001.89
2023-04-29 08:02:00,,0833.4,5.00,0.00,23.7,21.9,00.0,32.2,25.2,13.3,0000.0,0012.76,0004.33,0001.88
2023-04-29 08:03:00,,0833.4,5.00,0.00,23.7,21.9,00.0,32.2,25.1,13.4,0000.0,0013.24,0004.29,0001.87
2023-04-29 08:04:00,,0833.4,5.00,0.00,23.6,21.8,00.0,32.2,25.1,13.5,0000.0,0012.77,0004.23,0001.89
2023-04-29 08:05:00,,0833.4,5.00,0.00,23.6,21.8,00.0,32.2,25.1,13.3,0000.0,0012.62,0004.18,0001.91
2023-04-29 08:06:00,,0833.4,5.01,0.00,23.6,21.8,00.0,32.1,25.1,13.3,0000.0,0012.31,0004.20,0001.93
2023-04-29 08:07:00,,0833.4,5.00,0.00,23.6,21.8,00.0,32.1,25.1,13.2,0000.0,0012.08,0004.17,0001.94
2023-04-29 08:08:00,,0833.4,5.00,0.00,23.6,21.8,00.0,32.1,25.1,13.2,0000.0,0011.98,0004.14,0001.95
2023-04-29 08:09:00,,0833.4,5.00,0.00,23.5,21.7,00.0,32.1,25.0,13.2,0000.0,0012.60,0004.15,0001.94
2023-04-29 08:10:00,,0833.4,5.00,0.00,23.5,21.7,00.0,32.0,25.0,13.2,0000.0,0012.56,0004.20,0001.94
2023-04-29 08:11:00,,0833.4,5.00,0.00,23.5,21.7,00.0,32.0,25.0,13.2,0000.0,0012.77,0004.20,0001.94
2023-04-29 08:12:00,,0833.4,5.00,0.00,23.5,21.7,00.0,32.0,25.0,13.4,0000.0,0012.73,0004.20,0001.95
2023-04-29 08:13:00,,0833.4,5.00,0.00,23.5,21.7,00.0,32.0,25.0,13.2,0000.0,0012.27,0004.15,0001.95
2023-04-29 08:14:00,,0833.3,4.99,0.00,23.5,21.7,00.0,32.0,25.0,13.3,0000.0,0011.31,0004.13,0001.94
2023-04-29 08:15:00,,0833.2,5.00,0.00,23.5,21.7,00.0,32.0,25.0,13.6,0000.0,0011.10,0004.14,0001.92
2023-04-29 08:16:00,,0833.3,5.00,0.00,23.5,21.7,00.0,32.0,25.0,13.8,0000.0,0011.26,0004.20,0001.92
2023-04-29 08:17:00,,0833.3,5.02,0.00,23.5,21.7,00.0,31.9,25.0,13.7,0000.0,0011.77,0004.28,0001.94
2023-04-29 08:18:00,,0833.3,5.00,0.00,23.4,21.6,00.0,31.9,25.0,13.6,0000.0,0011.70,0004.25,0001.93
2023-04-29 08:19:00,,0833.3,4.98,0.00,23.4,21.6,00.0,31.9,24.9,13.8,0000.0,0011.63,0004.19,0001.93
2023-04-29 08:20:00,,0833.3,5.01,0.00,23.4,21.6,00.0,31.9,24.9,13.8,0000.0,0011.37,0004.20,0001.96
2023-04-29 08:21:00,,0833.2,5.00,0.00,23.4,21.6,00.0,31.9,24.9,13.6,0000.0,0011.08,0004.21,0001.98
2023-04-29 08:22:00,,0833.3,5.00,0.00,23.4,21.6,00.0,31.9,24.9,13.6,0000.0,0011.19,0004.15,0001.99
2023-04-29 08:23:00,,0833.3,5.00,0.00,23.4,21.6,00.0,31.8,24.9,13.5,0000.0,0011.07,0004.10,0001.99
2023-04-29 08:24:00,,0833.3,5.00,0.00,23.3,21.6,00.0,31.8,24.8,13.5,0000.0,0011.06,0004.10,0001.98
2023-04-29 08:25:00,,0833.3,4.98,0.00,23.3,21.6,00.0,31.8,24.9,13.3,0000.0,0011.07,0004.11,0001.97
2023-04-29 08:26:00,,0833.2,5.00,0.00,23.3,21.6,00.0,31.8,24.8,13.4,0000.0,0011.37,0004.15,0001.98
2023-04-29 08:27:00,,0833.3,5.00,0.00,23.3,21.6,00.0,31.8,24.8,13.4,0000.0,0011.58,0004.17,0001.98
2023-04-29 08:28:00,,0833.3,5.00,0.00,23.3,21.6,00.0,31.8,24.8,13.4,0000.0,0011.17,0004.07,0001.96
2023-04-29 08:29:00,,0833.2,5.00,0.00,23.3,21.7,00.0,31.8,24.8,13.3,0000.0,0011.06,0004.09,0001.96
2023-04-29 08:30:00,,0833.3,5.00,0.00,23.3,21.7,00.0,31.8,24.8,13.3,0000.0,0011.02,0004.08,0001.94
2023-04-29 08:31:00,,0833.2,5.00,0.00,23.3,21.7,00.0,31.7,24.8,13.2,0000.0,0011.41,0004.13,0001.93
2023-04-29 08:32:00,,0833.2,5.01,0.00,23.3,21.6,00.0,31.7,24.8,13.2,0000.0,0011.46,0004.06,0001.92
2023-04-29 08:33:00,,0833.2,5.00,0.00,23.2,21.7,00.0,31.7,24.8,13.2,0000.0,0011.39,0004.08,0001.91
2023-04-29 08:34:00,,0833.2,5.00,0.00,23.2,21.7,00.0,31.7,24.8,13.2,0000.0,0010.74,0004.11,0001.91
2023-04-29 08:35:00,,0833.2,5.00,0.00,23.2,21.7,00.0,31.7,24.8,13.2,0000.0,0010.65,0004.10,0001.92
2023-04-29 08:36:00,,0833.3,5.00,0.00,23.2,21.7,00.0,31.7,24.8,13.2,0000.0,0010.66,0004.10,0001.93
2023-04-29 08:37:00,,0833.2,5.00,0.00,23.2,21.7,00.0,31.7,24.8,13.1,0000.0,0010.48,0004.07,0001.93
2023-04-29 08:38:00,,0833.2,4.99,0.00,23.2,21.7,00.0,31.7,24.8,13.1,0000.0,0009.97,0004.03,0001.94
2023-04-29 08:39:00,,0833.3,5.00,0.00,23.3,21.7,00.0,31.7,24.8,13.1,0000.0,0009.98,0004.05,0001.94
2023-04-29 08:40:00,,0833.2,5.00,0.00,23.3,21.7,00.0,31.7,24.8,13.1,0000.0,0009.83,0003.99,0001.95
2023-04-29 08:41:00,,0833.3,5.00,0.00,23.3,21.7,00.0,31.7,24.8,13.2,0000.0,0009.84,0004.01,0001.95
2023-04-29 08:42:00,,0833.2,5.00,0.00,23.3,21.7,00.0,31.7,24.8,13.2,0000.0,0009.65,0004.03,0001.95
2023-04-29 08:43:00,,0833.2,5.00,0.00,23.2,21.7,00.0,31.7,24.8,13.2,0000.0,0009.35,0004.02,0001.94
2023-04-29 08:44:00,,0833.3,4.99,0.00,23.2,21.7,00.0,31.7,24.8,13.2,0000.0,0009.39,0004.06,0001.94
2023-04-29 08:45:00,,0833.2,5.00,0.00,23.2,21.7,00.0,31.7,24.8,13.2,0000.0,0009.28,0004.05,0001.94
2023-04-29 08:46:00,,0833.2,5.00,0.00,23.2,21.6,00.0,31.7,24.8,13.2,0000.0,0009.28,0004.04,0001.94
2023-04-29 08:47:00,,0833.2,5.00,0.00,23.2,21.6,00.0,31.6,24.8,13.2,0000.0,0009.78,0004.09,0001.94
2023-04-29 08:48:00,,0833.2,5.00,0.00,23.2,21.6,00.0,31.6,24.8,13.2,0000.0,0010.16,0004.15,0001.94
2023-04-29 08:49:00,,0833.3,5.00,0.00,23.2,21.6,00.0,31.6,24.8,13.2,0000.0,0010.38,0004.23,0001.95
2023-04-29 08:50:00,,0833.2,5.00,0.00,23.2,21.6,00.0,31.6,24.8,13.2,0000.0,0010.31,0004.21,0001.94
2023-04-29 08:51:00,,0833.2,5.00,0.00,23.2,21.5,00.0,31.6,24.8,13.2,0000.0,0010.35,0004.24,0001.93
2023-04-29 08:52:00,,0833.2,5.00,0.00,23.2,21.5,00.0,31.6,24.8,13.3,0000.0,0010.38,0004.22,0001.93
2023-04-29 08:53:00,,0833.2,5.00,0.00,23.2,21.5,00.0,31.6,24.7,13.3,0000.0,0010.53,0004.23,0001.94
2023-04-29 08:54:00,,0833.2,5.00,0.00,23.2,21.5,00.0,31.6,24.7,13.3,0000.0,0010.39,0004.23,0001.95
2023-04-29 08:55:00,,0833.2,5.00,0.00,23.1,21.5,00.0,31.6,24.7,13.3,0000.0,0010.66,0004.19,0001.95
2023-04-29 08:56:00,,0833.2,5.00,0.00,23.1,21.5,00.0,31.6,24.7,13.3,0000.0,0010.82,0004.16,0001.98
2023-04-29 08:57:00,,0833.1,5.00,0.00,23.1,21.5,00.0,31.6,24.7,13.2,0000.0,0011.19,0004.24,0002.01
2023-04-29 08:58:00,,0833.2,5.00,0.00,23.1,21.5,00.0,31.6,24.7,13.1,0000.0,0010.75,0004.19,0001.99
2023-04-29 08:59:00,,0833.2,5.00,0.00,23.1,21.5,00.0,31.6,24.7,13.1,0000.0,0010.23,0004.12,0001.99
